This is the latest recevied weather packets stored in our database for station/object TG8AKV-17. If no packets are shown the sender has not sent any weather packets the latest 10 day(s).
| Time | Temp. | Humidity | Pressure | Rain* | Wind** | Luminosity | Snow |
|---|---|---|---|---|---|---|---|
| 1778082575 | 17.78° C | 88% | 1017 hPa | 0 mm | - | - | - |
| 1778081975 | 17.78° C | 90% | 1017 hPa | 0 mm | - | - | - |
| 1778081374 | 15° C | 85% | 1017 hPa | 0 mm | - | - | - |
| 1778080773 | 15° C | 86% | 1017 hPa | 0 mm | - | - | - |
| 1778080173 | 15.56° C | 96% | 1017 hPa | 0 mm | - | - | - |
| 1778079572 | 15.56° C | 89% | 1017 hPa | 0 mm | - | - | - |
| 1778078972 | 17.22° C | 84% | 1017 hPa | 0 mm | - | - | - |
| 1778078371 | 17.22° C | 84% | 1017 hPa | 0 mm | - | - | - |
| 1778077771 | 17.22° C | 84% | 1017 hPa | 0 mm | - | - | - |
| 1778077170 | 17.22° C | 82% | 1017 hPa | 0 mm | - | - | - |
| 1778076569 | 17.22° C | 80% | 1017 hPa | 0 mm | - | - | - |
| 1778075969 | 12.22° C | 94% | 1017 hPa | 0 mm | - | - | - |
| 1778075368 | 12.22° C | 94% | 1017 hPa | 0 mm | - | - | - |
| 1778074768 | 12.22° C | 94% | 1017 hPa | 0 mm | - | - | - |
| 1778074167 | 12.22° C | 94% | 1017 hPa | 0 mm | - | - | - |
| 1778073566 | 12.22° C | 94% | 1017 hPa | 0 mm | - | - | - |
| 1778072966 | 12.22° C | 94% | 1017 hPa | 0 mm | - | - | - |
| 1778072365 | 12.22° C | 93% | 1017 hPa | 0 mm | - | - | - |
| 1778071765 | 12.22° C | 93% | 1017 hPa | 0 mm | - | - | - |
| 1778071164 | 11.67° C | 94% | 1017 hPa | 0 mm | - | - | - |
| 1778070563 | 11.67° C | 94% | 1018 hPa | 0 mm | - | - | - |
| 1778069963 | 11.67° C | 94% | 1018 hPa | 0 mm | - | - | - |
| 1778069362 | 11.67° C | 94% | 1018 hPa | 0 mm | - | - | - |
| 1778068762 | 11.11° C | 94% | 1018 hPa | 0 mm | - | - | - |
| 1778068161 | 11.11° C | 94% | 1018 hPa | 0 mm | - | - | - |
* Rain latest hour (hover to see other rain measurements)
** Current wind speed in m/s (hover to see current wind gust speed)